TimeMST,TemperatureF,Dew PointF,Humidity,Sea Level PressureIn,VisibilityMPH,Wind Direction,Wind SpeedMPH,Gust SpeedMPH,PrecipitationIn,Events,Conditions,WindDirDegrees,DateUTC
12:17 AM,62.6,51.8,68,30.29,2.0,West,6.9,16.1,0.13,Rain,Rain,270,2013-07-25 07:17:00
12:26 AM,60.8,55.4,82,30.28,10.0,West,6.9,-,0.13,Rain,Light Rain,260,2013-07-25 07:26:00
12:57 AM,60.1,55.0,83,29.98,10.0,West,3.5,-,0.13,,Scattered Clouds,260,2013-07-25 07:57:00
1:57 AM,62.1,55.9,80,30.02,10.0,ENE,4.6,-,N/A,,Overcast,70,2013-07-25 08:57:00
2:57 AM,60.1,57.9,93,30.04,10.0,Calm,Calm,-,0.02,,Overcast,0,2013-07-25 09:57:00
3:57 AM,59.0,57.0,93,29.99,10.0,Calm,Calm,-,0.05,,Mostly Cloudy,0,2013-07-25 10:57:00
4:57 AM,59.0,57.0,93,30.01,10.0,Calm,Calm,-,N/A,,Partly Cloudy,0,2013-07-25 11:57:00
5:57 AM,59.0,57.0,93,30.02,10.0,West,3.5,-,N/A,,Overcast,280,2013-07-25 12:57:00
6:57 AM,61.0,57.9,90,30.02,10.0,Calm,Calm,-,N/A,,Overcast,0,2013-07-25 13:57:00
7:57 AM,64.9,60.1,84,30.04,10.0,Calm,Calm,-,N/A,,Partly Cloudy,0,2013-07-25 14:57:00
8:57 AM,71.1,57.9,63,30.02,10.0,Variable,3.5,-,N/A,,Clear,0,2013-07-25 15:57:00
9:57 AM,73.9,57.9,57,30.02,10.0,WSW,6.9,-,N/A,,Clear,240,2013-07-25 16:57:00
10:57 AM,75.9,61.0,60,30.02,10.0,SSW,10.4,-,N/A,,Clear,200,2013-07-25 17:57:00
11:32 AM,75.2,59.0,57,30.34,10.0,South,6.9,-,N/A,Thunderstorm,Thunderstorm,170,2013-07-25 18:32:00
11:57 AM,64.0,57.0,78,30.07,6.0,North,11.5,23.0,N/A,Rain-Thunderstorm,Heavy Thunderstorms and Rain,360,2013-07-25 18:57:00
12:05 PM,62.6,57.2,82,30.37,6.0,WNW,10.4,-,0.05,Rain-Thunderstorm,Heavy Thunderstorms and Rain,290,2013-07-25 19:05:00
12:22 PM,55.4,53.6,94,30.38,1.0,ENE,4.6,17.3,0.80,Rain-Thunderstorm,Heavy Thunderstorms and Rain,70,2013-07-25 19:22:00
12:30 PM,55.4,55.4,100,30.37,6.0,Calm,Calm,-,1.01,Rain-Thunderstorm,Heavy Thunderstorms and Rain,0,2013-07-25 19:30:00
12:57 PM,59.0,57.0,93,30.10,6.0,SSW,4.6,-,1.11,Rain-Thunderstorm,Light Thunderstorms and Rain,200,2013-07-25 19:57:00
1:04 PM,60.8,57.2,88,30.37,10.0,SW,8.1,-,0.00,Rain,Light Rain,220,2013-07-25 20:04:00
1:57 PM,59.0,57.0,93,30.09,10.0,NW,4.6,-,0.00,,Overcast,320,2013-07-25 20:57:00
2:57 PM,61.0,57.9,90,30.07,10.0,South,5.8,-,N/A,,Partly Cloudy,170,2013-07-25 21:57:00
3:57 PM,64.0,60.1,87,30.05,10.0,Calm,Calm,-,N/A,,Clear,0,2013-07-25 22:57:00
4:57 PM,63.0,59.0,87,30.10,10.0,Calm,Calm,-,N/A,,Partly Cloudy,0,2013-07-25 23:57:00
5:57 PM,63.0,57.9,84,30.09,10.0,Calm,Calm,-,N/A,,Overcast,0,2013-07-26 00:57:00
6:57 PM,63.0,57.9,84,30.09,10.0,Calm,Calm,-,N/A,,Partly Cloudy,0,2013-07-26 01:57:00
7:57 PM,61.0,59.0,93,30.11,10.0,East,5.8,-,N/A,,Mostly Cloudy,90,2013-07-26 02:57:00
8:57 PM,62.1,57.9,86,30.05,10.0,West,5.8,-,N/A,,Clear,280,2013-07-26 03:57:00
9:57 PM,62.1,57.9,86,30.09,10.0,WNW,3.5,-,N/A,,Clear,290,2013-07-26 04:57:00
10:57 PM,61.0,59.0,93,30.07,10.0,WSW,4.6,-,N/A,,Clear,250,2013-07-26 05:57:00
11:57 PM,60.1,57.9,93,30.12,10.0,WNW,3.5,-,N/A,,Clear,290,2013-07-26 06:57:00